Tracking 17149 objects as of 22-May-2015
HD Live streaming from Space Station

SL-16 DEB

Track SL-16 DEB now!
10-day predictions
SL-16 DEB is classified as:


NORAD ID: 22289
Int'l Code: 1992-093D
Perigee: 752.3 km
Apogee: 837.2 km
Inclination: 70.8 °
Period: 100.6 minutes
Semi major axis: 7165 km
RCS: 0.0658 m2 (small)
Launch date: December 25, 1992
Source: Commonwealth of Independent States (former USSR) (CIS)

Note: This is SATELLITE DEBRIS
Your satellite tracking list
Your tracking list is empty





NASA's NSSDC Master Catalog

Two Line Element Set (TLE):
1 22289U 92093D   15142.19750359  .00000193  00000-0  90284-4 0  9998
2 22289 070.8306 124.5386 0059203 068.7139 031.0495 14.31227042169320

Source of the keplerian elements: AFSPC

N2YO: 421